Regional Weather Roundup
Issued by NWS

Home | Current Version | Previous Version | Text Only | Print | Product List | Glossary On
Versions: 1 2 3 4 5 6 7 8 9 10 11 12 13 14 15 16 17 18 19 20 21 22 23 24 25 26 27 28 29 30 31 32 33 34 35 36 37 38 39 40 41 42 43 44 45 46 47 48 49 50
000
ASUS44 KEWX 252311
RWRTX
SOUTH TEXAS REGIONAL WEATHER ROUNDUP
NATIONAL WEATHER SERVICE AUSTIN/SAN ANTONIO TX
600 PM CDT MON MAY 25 2015

NOTE: "FAIR" INDICATED FEW OR NO CLOUDS BELOW 12,000 FEET WITH NO
SIGNIFICANT WEATHER AND/OR OBSTRUCTIONS TO VISIBILITY.

* - THESE STATIONS ARE NOT NWS OR FAA STATIONS...AND ARE NOT SUBJECT
    TO NWS AND FAA QUALITY CONTROL.

TXZ171-172-183>190-260000-
TEXAS HILL COUNTRY AND EDWARDS PLATEAU

CITY           SKY/WX    TMP DP  RH WIND       PRES   REMARKS
JUNCTION       MOSUNNY   81  67  62 E10       29.80S
*LLANO         CLOUDY    70  66  88 CALM      29.84F
BURNET         CLOUDY    66  64  93 E5        29.84S
*HORSESHOE BAY CLOUDY    67  66  96 CALM      29.81F
*KERRVILLE     SUNNY     84  69  61 SW8       29.79F
*FREDERICKSBRG CLOUDY    74  67  79 NE7       29.82R
*ROCKSPRINGS   SUNNY     84  61  45 W10       29.84F
*BOERNE STAGE    N/A     81  72  74 W6        29.79S
*CASTROVILLE   CLOUDY    87  71  58 SW15      29.75F HX  92
HONDO          MOSUNNY   87  71  58 SW12      29.77F HX  93
*UVALDE        SUNNY     87  68  52 SW5       29.76F HX  90
DEL RIO        SUNNY     91  63  39 S9        29.74F HX  92
LAUGHLIN AFB   NOT AVBL
CARRIZO SPRGS  SUNNY     90  68  48 S3        29.73F HX  93
$$

TXZ173-191>194-202-209-217>225-228-260000-
CENTRAL AND SOUTH CENTRAL TEXAS

CITY           SKY/WX    TMP DP  RH WIND       PRES   REMARKS
GEORGETOWN     MOSUNNY   68  68 100 NE6       29.80F
AUSTIN/BERGSTM TSTM      69  69 100 E8        29.82R
AUSTIN/MABRY   CLOUDY    67  66  97 CALM      29.83R
*AUSTIN/EXEC   NOT AVBL
*LAGO VISTA    CLOUDY    67  66  95 E6        29.85R
SAN MARCOS     NOT AVBL
NEW BRAUNFELS  CLOUDY    75  74  96 SW5       29.75R THUNDER
RANDOLPH AFB   CLOUDY    78  74  86 NW3       29.75S THUNDER
PT SAN ANTONIO NOT AVBL
SAN ANTONIO    CLOUDY    86  72  62 SW14G20   29.74F HX  92
STINSON FIELD  PTSUNNY   87  73  62 SW16      29.71F HX  94
*PLEASANTON    PTSUNNY   90  73  58 S15G21    29.73S HX  98
*LA GRANGE     TSTM      81  76  84 S14G20    29.81R
*GIDDINGS      HVY RAIN  68  65  90 W13G23    29.92R VSB 1
*GONZALES      CLOUDY    80  76  87 SE16G23   29.74R
$$

TXZ163>164-176>182-195>201-210>213-226-227-235-260000-
SOUTHEAST TEXAS

CITY           SKY/WX    TMP DP  RH WIND       PRES   REMARKS
COLLEGE STN    TSTM      67  65  93 VRB6      29.87R FOG
*BRYAN         TSTM      66  66 100 NW22G40   29.86R VSB 1
*CALDWELL      TSTM      66  66 100 NE8       29.87R
*CROCKETT      NOT AVBL
*BRENHAM       CLOUDY    82  73  74 S7        29.83R THUNDER
HUNTSVILLE     CLOUDY    81  72  74 VRB7      29.84R
CONROE         CLOUDY    81  73  76 S14       29.85S
HOUSTON BUSH   CLOUDY    83  73  72 S10G20    29.84S
HOUSTON HOBBY  CLOUDY    83  75  77 S15G22    29.83S HX  90
*HOUSTON SW AP NOT AVBL
PEARLAND       CLOUDY    84  76  76 S13G23    29.85S HX  93
HOUSTON HOOKS  CLOUDY    83  72  69 SE14G22   29.82F
ELLINGTON FLD  CLOUDY    82  75  78 S15       29.86S
SUGAR LAND     CLOUDY    83  75  77 SE13      29.82F HX  90
*HOUSTON EXEC  CLOUDY    82  73  74 S15G22    29.83S
*CLEVELAND MUN CLOUDY    80  74  83 S10G16    29.86F
*WHARTON       PTSUNNY   81  75  82 S15G23    29.82R
*COLUMBUS      CLOUDY    80  75  85 S14G23    29.79R
$$

TXZ214>216-236>238-260000-
THE UPPER TEXAS COAST

CITY           SKY/WX    TMP DP  RH WIND       PRES   REMARKS
*ORANGE        PTSUNNY   83  73  71 S13G23    29.91R
PORT ARTHUR    PTSUNNY   83  75  77 S18G29    29.87S HX  90
GALVESTON      CLOUDY    82  79  90 SE21      29.84F HX  92
ANGLETON       CLOUDY    78  77  96 S20G30    29.82F
*BAY CITY      CLOUDY    83  79  88 S15       29.81F HX  94
PALACIOS       CLOUDY    83  77  82 S20G29    29.79F HX  92
$$

TXZ229>234-239>247-260000-
TEXAS COASTAL BEND AND RIO GRANDE PLAINS

CITY           SKY/WX    TMP DP  RH WIND       PRES   REMARKS
VICTORIA       CLOUDY    82  76  81 S22G33    29.77F
*BEEVILLE      CLOUDY    83  78  86 S21G28    29.74F HX  93
ROCKPORT       PTSUNNY   83  77  82 S14G26    29.76F HX  92
*PORT ARANSAS  PTSUNNY   83  78  86 S18G28    29.77F HX  92
*PORT LAVACA   CLOUDY    82  77  83 S23G29    29.77F HX  91
*INGLESIDE     CLOUDY    85  77  76 S23G31    29.76F HX  96
CORPUS CHRISTI PTSUNNY   85  77  77 S28G35    29.76F HX  95
CORPUS NAS     PTSUNNY   83  78  85 S18G32    29.78F HX  93
*ROBSTOWN      PTSUNNY   87  78  76 S23G29    29.75F HX 100
ALICE          LGT RAIN  89  77  67 S21G26    29.73F HX 101
KINGSVILLE NAS PTSUNNY   88  80  77 S21G28    29.75F HX 104
COTULLA        SUNNY     91  70  49 VRB6      29.73F HX  96
*FAITH RANCH     N/A     91  68  46 CALM      29.74F HX  95
LAREDO         SUNNY     92  69  46 SE6       29.76F HX  96
$$

TXZ248>255-260000-
DEEP SOUTH TEXAS

CITY           SKY/WX    TMP DP  RH WIND       PRES   REMARKS
BROWNSVILLE    PTSUNNY   87  77  72 S18       29.79F HX  99
PORT ISABEL    MOSUNNY   85  77  77 S18       29.78F HX  95
*SOUTH PADRE     N/A    102 N/A N/A SW14      29.80S
HARLINGEN      SUNNY     88  77  69 S23G30    29.77F HX 100
*HEBBRONVILLE    N/A     89  74  60 SE14G20   29.77S HX  98
MCALLEN        MOSUNNY   90  77  65 SE17G25   29.77F HX 103
*WESLACO       MOSUNNY   88  75  64 S17G24    29.77S HX  97
FALFURRIAS     MOSUNNY   90  76  63 S16G22    29.75S HX 100
EDINBURG       PTSUNNY   89  75  63 S9G21     29.77S HX  98
*ZAPATA        MOSUNNY   92  71  50 SE10      29.74S HX  99
$$

TXZ213>215-236>238-242>244-246-247-251-254-255-260000-
CMAN STATIONS

STATION/POSITION TIME  TEMP    WIND        PRES    WAVE
                       AIR SEA DIR/SP/G            HT/PER
                 (UTC) (F)     (DEG/KT/KT) (MB)    (FT/S)
$$

GMZ080-GMZ150>470-260000-
OFFSHORE BUOY REPORTS

STATION/POSITION TIME  TEMP    WIND        PRES    WAVE
                       AIR SEA DIR/SP/G            HT/PER
                 (UTC) (F)     (DEG/KT/KT) (MB)    (FT/S)
$$



USA.gov is the U.S. government's official web portal to all federal, state and local government web resources and services.